Time,TemperatureF,DewpointF,PressureIn,WindDirection,WindDirectionDegrees,WindSpeedMPH,WindSpeedGustMPH,Humidity,HourlyPrecipIn,Conditions,Clouds,dailyrainin,SoftwareType,DateUTC
2013-04-09 00:03:00,54.0,45.0,-100.00,WNW,290,5.0,9.0,72,0.00,,,-99.99,,2013-04-09 04:03:00,
2013-04-09 00:13:00,53.0,45.0,-100.00,WNW,290,5.0,9.0,72,0.00,,,-99.99,,2013-04-09 04:13:00,
2013-04-09 00:23:00,53.0,44.0,-100.00,WNW,285,4.0,6.0,72,0.00,,,-99.99,,2013-04-09 04:23:00,
2013-04-09 00:32:00,53.0,44.0,-100.00,WNW,285,2.0,6.0,73,0.00,,,-99.99,,2013-04-09 04:32:00,
2013-04-09 00:40:00,51.0,43.0,-100.00,WNW,295,4.0,8.0,74,0.00,,,-99.99,,2013-04-09 04:40:00,
2013-04-09 00:42:00,53.0,44.0,-100.00,NW,305,6.0,9.0,73,0.00,,,-99.99,,2013-04-09 04:42:00,
2013-04-09 00:52:00,53.0,44.0,-100.00,NW,305,6.0,9.0,73,0.00,,,-99.99,,2013-04-09 04:52:00,
2013-04-09 01:02:00,51.0,43.0,-100.00,WNW,295,4.0,8.0,74,0.00,,,-99.99,,2013-04-09 05:02:00,
2013-04-09 01:12:00,51.0,43.0,-100.00,WNW,295,4.0,8.0,74,0.00,,,-99.99,,2013-04-09 05:12:00,
2013-04-09 01:22:00,51.0,43.0,-100.00,WNW,295,4.0,8.0,74,0.00,,,-99.99,,2013-04-09 05:22:00,
2013-04-09 01:32:00,51.0,43.0,-100.00,WNW,295,4.0,8.0,74,0.00,,,-99.99,,2013-04-09 05:32:00,
2013-04-09 10:33:00,49.0,45.0,-100.00,North,-999,-999.0,-999.0,85,0.00,,,-99.99,,2013-04-09 14:33:00,
2013-04-09 10:43:00,50.0,45.0,-100.00,East,95,7.0,11.0,84,0.00,,,-99.99,,2013-04-09 14:43:00,
2013-04-09 10:52:00,50.0,45.0,-100.00,East,90,7.0,14.0,83,0.00,,,-99.99,,2013-04-09 14:52:00,
2013-04-09 11:02:00,50.0,45.0,-100.00,ESE,105,8.0,11.0,82,0.00,,,-99.99,,2013-04-09 15:02:00,
2013-04-09 11:13:00,51.0,45.0,-100.00,ESE,120,6.0,12.0,80,0.00,,,-99.99,,2013-04-09 15:13:00,
2013-04-09 11:22:00,51.0,45.0,-100.00,East,95,7.0,12.0,79,0.00,,,-99.99,,2013-04-09 15:22:00,
2013-04-09 11:34:00,52.0,45.0,-100.00,East,90,6.0,9.0,78,0.00,,,-99.99,,2013-04-09 15:34:00,
2013-04-09 11:43:00,51.0,45.0,-100.00,ESE,115,6.0,9.0,77,0.00,,,-99.99,,2013-04-09 15:43:00,
2013-04-09 11:53:00,52.0,45.0,-100.00,East,95,6.0,8.0,78,0.00,,,-99.99,,2013-04-09 15:53:00,
2013-04-09 12:03:00,51.0,45.0,-100.00,ESE,105,6.0,11.0,79,0.00,,,-99.99,,2013-04-09 16:03:00,
2013-04-09 12:13:00,51.0,45.0,-100.00,East,80,4.0,10.0,79,0.00,,,-99.99,,2013-04-09 16:13:00,
2013-04-09 12:23:00,51.0,45.0,-100.00,East,100,6.0,11.0,80,0.00,,,-99.99,,2013-04-09 16:23:00,
2013-04-09 12:33:00,51.0,45.0,-100.00,ENE,75,5.0,8.0,80,0.00,,,-99.99,,2013-04-09 16:33:00,
2013-04-09 12:42:00,50.0,44.0,-100.00,ENE,70,4.0,9.0,80,0.00,,,-99.99,,2013-04-09 16:42:00,
2013-04-09 12:53:00,50.0,44.0,-100.00,East,85,5.0,9.0,80,0.00,,,-99.99,,2013-04-09 16:53:00,
2013-04-09 13:02:00,49.0,44.0,-100.00,East,100,7.0,9.0,81,0.00,,,-99.99,,2013-04-09 17:02:00,
2013-04-09 13:13:00,49.0,44.0,-100.00,East,80,6.0,11.0,82,0.00,,,-99.99,,2013-04-09 17:13:00,
2013-04-09 13:23:00,49.0,44.0,-100.00,ESE,105,7.0,12.0,83,0.00,,,-99.99,,2013-04-09 17:23:00,
2013-04-09 13:32:00,49.0,44.0,-100.00,East,100,8.0,17.0,83,0.00,,,-99.99,,2013-04-09 17:32:00,
2013-04-09 13:42:00,50.0,44.0,-100.00,ESE,105,9.0,12.0,81,0.00,,,-99.99,,2013-04-09 17:42:00,
2013-04-09 13:53:00,50.0,44.0,-100.00,ESE,115,9.0,15.0,80,0.00,,,-99.99,,2013-04-09 17:53:00,
2013-04-09 14:02:00,50.0,44.0,-100.00,ESE,115,9.0,15.0,80,0.00,,,-99.99,,2013-04-09 18:02:00,
2013-04-09 14:13:00,52.0,45.0,-100.00,East,90,8.0,14.0,76,0.00,,,-99.99,,2013-04-09 18:13:00,
2013-04-09 14:23:00,54.0,45.0,-100.00,ENE,60,4.0,9.0,72,0.00,,,-99.99,,2013-04-09 18:23:00,
2013-04-09 14:33:00,55.0,46.0,-100.00,ESE,115,4.0,10.0,70,0.00,,,-99.99,,2013-04-09 18:33:00,
2013-04-09 14:43:00,55.0,45.0,-100.00,East,95,7.0,9.0,68,0.00,,,-99.99,,2013-04-09 18:43:00,
2013-04-09 14:52:00,55.0,45.0,-100.00,East,80,7.0,12.0,68,0.00,,,-99.99,,2013-04-09 18:52:00,
2013-04-09 15:03:00,55.0,45.0,-100.00,East,80,7.0,12.0,68,0.00,,,-99.99,,2013-04-09 19:03:00,
2013-04-09 15:12:00,55.0,45.0,-100.00,East,80,7.0,12.0,68,0.00,,,-99.99,,2013-04-09 19:12:00,
2013-04-09 15:22:00,56.0,45.0,-100.00,East,90,7.0,11.0,67,0.00,,,-99.99,,2013-04-09 19:22:00,
2013-04-09 15:32:00,58.0,46.0,-100.00,East,100,7.0,11.0,64,0.00,,,-99.99,,2013-04-09 19:32:00,
2013-04-09 15:42:00,58.0,46.0,-100.00,East,100,7.0,11.0,64,0.00,,,-99.99,,2013-04-09 19:42:00,
2013-04-09 15:52:00,58.0,46.0,-100.00,ENE,75,6.0,12.0,64,0.00,,,-99.99,,2013-04-09 19:52:00,
2013-04-09 16:03:00,58.0,45.0,-100.00,East,85,7.0,12.0,63,0.00,,,-99.99,,2013-04-09 20:03:00,
2013-04-09 16:12:00,58.0,46.0,-100.00,ESE,115,7.0,12.0,62,0.00,,,-99.99,,2013-04-09 20:12:00,
2013-04-09 16:22:00,57.0,45.0,-100.00,East,100,6.0,16.0,64,0.00,,,-99.99,,2013-04-09 20:22:00,
2013-04-09 16:34:00,57.0,45.0,-100.00,East,100,6.0,16.0,64,0.00,,,-99.99,,2013-04-09 20:34:00,
2013-04-09 16:43:00,57.0,45.0,-100.00,East,100,9.0,11.0,63,0.00,,,-99.99,,2013-04-09 20:43:00,
2013-04-09 16:52:00,57.0,45.0,-100.00,East,100,8.0,12.0,64,0.00,,,-99.99,,2013-04-09 20:52:00,
2013-04-09 17:02:00,58.0,46.0,-100.00,ESE,105,7.0,9.0,63,0.00,,,-99.99,,2013-04-09 21:02:00,
2013-04-09 17:14:00,56.0,44.0,-100.00,East,100,6.0,11.0,65,0.00,,,-99.99,,2013-04-09 21:14:00,
2013-04-09 17:22:00,56.0,44.0,-100.00,East,100,6.0,11.0,65,0.00,,,-99.99,,2013-04-09 21:22:00,
2013-04-09 17:33:00,56.0,45.0,-100.00,East,90,6.0,8.0,65,0.00,,,-99.99,,2013-04-09 21:33:00,
2013-04-09 17:42:00,56.0,45.0,-100.00,East,90,6.0,8.0,65,0.00,,,-99.99,,2013-04-09 21:42:00,
2013-04-09 17:52:00,55.0,44.0,-100.00,ESE,105,7.0,9.0,67,0.00,,,-99.99,,2013-04-09 21:52:00,
2013-04-09 18:03:00,53.0,44.0,-100.00,ENE,75,2.0,10.0,68,0.00,,,-99.99,,2013-04-09 22:03:00,
2013-04-09 18:13:00,53.0,43.0,-100.00,ENE,65,6.0,12.0,70,0.00,,,-99.99,,2013-04-09 22:13:00,
2013-04-09 18:23:00,52.0,43.0,-100.00,East,95,3.0,11.0,70,0.00,,,-99.99,,2013-04-09 22:23:00,
2013-04-09 18:33:00,53.0,43.0,-100.00,North,5,3.0,8.0,70,0.00,,,-99.99,,2013-04-09 22:33:00,
2013-04-09 18:42:00,51.0,43.0,-100.00,ENE,75,4.0,9.0,72,0.00,,,-99.99,,2013-04-09 22:42:00,
2013-04-09 18:53:00,51.0,43.0,-100.00,ENE,60,6.0,9.0,73,0.00,,,-99.99,,2013-04-09 22:53:00,
2013-04-09 19:03:00,50.0,42.0,-100.00,NE,40,3.0,6.0,74,0.00,,,-99.99,,2013-04-09 23:03:00,
2013-04-09 19:12:00,50.0,42.0,-100.00,NE,40,3.0,9.0,75,0.00,,,-99.99,,2013-04-09 23:12:00,
2013-04-09 19:23:00,50.0,43.0,-100.00,ENE,70,2.0,6.0,76,0.00,,,-99.99,,2013-04-09 23:23:00,
2013-04-09 19:32:00,50.0,43.0,-100.00,NE,40,2.0,6.0,76,0.00,,,-99.99,,2013-04-09 23:32:00,
2013-04-09 19:42:00,50.0,43.0,-100.00,ENE,60,3.0,7.0,76,0.00,,,-99.99,,2013-04-09 23:42:00,
2013-04-09 19:52:00,50.0,43.0,-100.00,NE,55,1.0,6.0,76,0.00,,,-99.99,,2013-04-09 23:52:00,
2013-04-09 20:03:00,50.0,43.0,-100.00,ESE,105,3.0,9.0,76,0.00,,,-99.99,,2013-04-10 00:03:00,
2013-04-09 20:12:00,50.0,43.0,-100.00,ESE,105,3.0,9.0,76,0.00,,,-99.99,,2013-04-10 00:12:00,
2013-04-09 20:23:00,50.0,43.0,-100.00,ESE,105,5.0,8.0,77,0.55,,,-99.99,,2013-04-10 00:23:00,
2013-04-09 20:33:00,50.0,43.0,-100.00,ESE,110,4.0,8.0,77,0.00,,,-99.99,,2013-04-10 00:33:00,
2013-04-09 20:42:00,50.0,43.0,-100.00,ESE,115,4.0,7.0,77,0.00,,,-99.99,,2013-04-10 00:42:00,
2013-04-09 20:52:00,50.0,43.0,-100.00,SE,125,6.0,10.0,78,0.00,,,-99.99,,2013-04-10 00:52:00,
2013-04-09 21:02:00,50.0,44.0,-100.00,SE,135,4.0,9.0,78,0.00,,,-99.99,,2013-04-10 01:02:00,
2013-04-09 21:12:00,50.0,44.0,-100.00,ESE,110,6.0,7.0,78,0.00,,,-99.99,,2013-04-10 01:12:00,
2013-04-09 21:23:00,50.0,44.0,-100.00,East,100,6.0,7.0,80,0.00,,,-99.99,,2013-04-10 01:23:00,
2013-04-09 21:32:00,50.0,44.0,-100.00,ESE,105,7.0,9.0,81,0.00,,,-99.99,,2013-04-10 01:32:00,
2013-04-09 21:42:00,50.0,44.0,-100.00,East,85,3.0,7.0,81,0.00,,,-99.99,,2013-04-10 01:42:00,
2013-04-09 21:52:00,50.0,45.0,-100.00,East,90,6.0,9.0,82,0.00,,,-99.99,,2013-04-10 01:52:00,
2013-04-09 22:02:00,50.0,45.0,-100.00,East,100,4.0,7.0,83,0.00,,,-99.99,,2013-04-10 02:02:00,
2013-04-09 22:12:00,50.0,45.0,-100.00,East,80,2.0,6.0,83,0.00,,,-99.99,,2013-04-10 02:12:00,
2013-04-09 22:22:00,50.0,45.0,-100.00,East,80,2.0,6.0,83,0.00,,,-99.99,,2013-04-10 02:22:00,
2013-04-09 22:33:00,50.0,45.0,-100.00,East,95,3.0,6.0,85,0.00,,,-99.99,,2013-04-10 02:33:00,
2013-04-09 22:43:00,50.0,46.0,-100.00,NE,50,4.0,9.0,85,0.00,,,-99.99,,2013-04-10 02:43:00,
2013-04-09 22:50:00,49.0,46.0,-100.00,NE,55,2.0,9.0,89,0.00,,,-99.99,,2013-04-10 02:50:00,
2013-04-09 22:52:00,49.0,46.0,-100.00,NNW,330,2.0,9.0,86,0.00,,,-99.99,,2013-04-10 02:52:00,
2013-04-09 23:03:00,49.0,46.0,-100.00,NE,50,3.0,9.0,87,0.00,,,-99.99,,2013-04-10 03:03:00,
2013-04-09 23:12:00,49.0,46.0,-100.00,NE,55,2.0,9.0,89,0.00,,,-99.99,,2013-04-10 03:12:00,
2013-04-09 23:22:00,49.0,46.0,-100.00,NE,55,2.0,9.0,89,0.00,,,-99.99,,2013-04-10 03:22:00,
2013-04-09 23:33:00,49.0,46.0,-100.00,NE,55,2.0,9.0,89,0.00,,,-99.99,,2013-04-10 03:33:00,
2013-04-09 23:43:00,49.0,46.0,-100.00,NE,55,2.0,9.0,89,0.00,,,-99.99,,2013-04-10 03:43:00,